Location: ???????
(52.3000°N, 54.4667°E)
Time: 20:43:21
(UTC+00:00)

Cosmos 2221 - Pass Details

Date: 24 January 2020
Orbit: 593 x 616 km, 82.5° (Epoch: 16 February)

Event Time Altitude Azimuth Distance (km) Brightness Sun altitude
Rises 14:04:23 0° 359° (N) 2,847 5.8 -10.7°
Reaches altitude 10° 14:07:13 10° 19° (NNE) 1,941 4.8 -11.1°
Maximum altitude 14:10:11 18° 63° (ENE) 1,485 3.9 -11.6°
Enters shadow 14:11:08 17° 80° (E) 1,537 3.9 -11.7°
